South Bend, IN

12:33 PM EST on December 08, 2016 (GMT -0500)
South Bend Regional

Weather History for KSBN - January, 2014

Change the Weather History Date:

Sunday, January 5, 2014

  Actual Average Record
Temperature  
Mean Temperature 23 °F 25 °F  
Max Temperature 30 °F 32 °F 56 °F (1998)
Min Temperature 16 °F 18 °F -16 °F (1999)
Degree Days  
Heating Degree Days 42 40  
Month to date heating degree days 250 200  
Since 1 July heating degree days 2736 2591  
Cooling Degree Days 0 0  
Month to date cooling degree days 0 0  
Year to date cooling degree days 0 0  
Moisture  
Dew Point 23 °F    
Average Humidity 88    
Maximum Humidity 92    
Minimum Humidity 84    
Precipitation  
Precipitation 0.53 in 0.08 in 1.17 in (1955)
Month to date precipitation 1.11 0.42  
Year to date precipitation 1.11 0.42  
Snow  
Snow 0.00 in 0.70 in 10.00 in (2014)
Month to date snowfall 3.2  
Since 1 July snowfall 25.7  
Snow Depth -    
Sea Level Pressure  
Sea Level Pressure 29.89 in    
Wind  
Wind Speed 12 mph (North)    
Max Wind Speed 30 mph    
Max Gust Speed 38 mph    
Visibility 1 miles    
Events Fog , Snow    
T = Trace of Precipitation, MM = Missing Value Source: NWS Daily Summary

Daily Weather History Graph

Daily Weather History Graph

Search for Another Location

Airport or City:

Trip Planner

Search our weather history database for the weather conditions in past years. The results will help you decide how hot, cold, wet, or windy it might be!

Date:

Astronomy

Jan. 05, 2014 Rise Set
Actual Time 8:12 AM EST 5:29 PM EST
Civil Twilight 7:41 AM EST 6:00 PM EST
Nautical Twilight 7:06 AM EST 6:35 PM EST
Astronomical Twilight 6:32 AM EST 7:08 PM EST
Moon 10:49 AM EST (1/5) 11:01 PM EST (1/5)
Length of Visible Light 10h 19m
Length of Day
9h 16m
Waxing Crescent, 24% of the Moon is Illuminated
Jan 5
Waxing Crescent
Jan 7
First Quarter
Jan 15
Full
Jan 24
Last Quarter
Jan 30
New

Hourly Weather History & Observations

Time (EST) Temp. Windchill Dew Point Humidity Pressure Visibility Wind Dir Wind Speed Gust Speed Precip Events Conditions
12:10 AM 30.2 °F 24.3 °F 26.6 °F 86% 29.99 in 1.5 mi SSW 5.8 mph - 0.01 in Snow Light Snow
12:54 AM 30.0 °F 25.2 °F 27.0 °F 88% 30.01 in 1.5 mi SSW 4.6 mph - 0.03 in Snow Light Snow
1:07 AM 30.2 °F 25.4 °F 26.6 °F 86% 29.99 in 2.0 mi SSW 4.6 mph - 0.01 in Snow Light Snow
1:22 AM 28.4 °F 23.3 °F 26.6 °F 93% 29.99 in 1.8 mi SSW 4.6 mph - 0.01 in Snow Light Snow
1:47 AM 30.2 °F 25.4 °F 26.6 °F 86% 29.99 in 1.2 mi South 4.6 mph - 0.02 in Snow Light Snow
1:54 AM 30.0 °F 26.5 °F 27.0 °F 88% 30.01 in 1.0 mi SSW 3.5 mph - 0.03 in Snow Light Snow
2:54 AM 30.0 °F - 28.0 °F 92% 30.01 in 1.2 mi Calm Calm - 0.02 in Snow Light Snow
3:54 AM 30.0 °F - 28.0 °F 92% 30.01 in 1.2 mi Calm Calm - 0.03 in Snow Light Snow
4:54 AM 30.0 °F - 27.0 °F 88% 30.00 in 1.0 mi Calm Calm - 0.02 in Snow Light Snow
5:24 AM 30.2 °F 26.7 °F 28.4 °F 93% 29.97 in 1.0 mi South 3.5 mph - 0.02 in Snow Light Snow
5:54 AM 30.0 °F - 28.0 °F 92% 29.99 in 1.0 mi Calm Calm - 0.04 in Snow Light Snow
6:08 AM 30.2 °F - 28.4 °F 93% 29.96 in 1.0 mi Calm Calm - 0.00 in Snow Light Snow
6:54 AM 28.9 °F - 26.1 °F 89% 29.99 in 1.8 mi Calm Calm - 0.01 in Snow Light Snow
7:54 AM 30.0 °F - 27.0 °F 88% 29.99 in 2.0 mi Calm Calm - 0.01 in Snow Light Snow
8:52 AM 28.4 °F 22.2 °F 26.6 °F 93% 29.94 in 1.5 mi NE 5.8 mph - 0.00 in Snow Light Snow
8:54 AM 28.9 °F 23.9 °F 27.0 °F 92% 29.97 in 1.5 mi NE 4.6 mph - 0.00 in Snow Light Snow
9:54 AM 30.0 °F 25.2 °F 27.0 °F 88% 29.99 in 1.2 mi North 4.6 mph - 0.01 in Snow Light Snow
10:30 AM 30.2 °F 21.9 °F 26.6 °F 86% 29.95 in 0.5 mi NNE 9.2 mph - 0.01 in Fog , Snow Snow
10:54 AM 30.0 °F 20.5 °F 26.1 °F 85% 29.96 in 1.0 mi NNE 11.5 mph - 0.02 in Snow Light Snow
10:59 AM 30.2 °F 21.3 °F 26.6 °F 86% 29.93 in 0.8 mi NNE 10.4 mph - 0.00 in Snow Light Snow
11:31 AM 30.2 °F 21.3 °F 26.6 °F 86% 29.91 in 0.8 mi NNE 10.4 mph - 0.01 in Snow Light Snow
11:45 AM 30.2 °F 22.6 °F 26.6 °F 86% 29.90 in 0.8 mi NNE 8.1 mph - 0.02 in Snow Light Snow
11:54 AM 28.9 °F 19.2 °F 26.1 °F 89% 29.93 in 0.5 mi North 11.5 mph - 0.03 in Fog , Snow Snow
12:06 PM 28.4 °F 19.1 °F 26.6 °F 93% 29.89 in 0.2 mi North 10.4 mph - 0.01 in Fog , Snow Snow
12:54 PM 27.0 °F 15.2 °F 24.1 °F 89% 29.86 in 0.5 mi North 15.0 mph - 0.06 in Fog , Snow Snow
1:04 PM 26.6 °F 15.2 °F 24.8 °F 93% 29.83 in 0.2 mi North 13.8 mph - 0.01 in Fog , Snow Snow
1:17 PM 26.6 °F 15.2 °F 24.8 °F 93% 29.83 in 0.5 mi North 13.8 mph - 0.02 in Fog , Snow Snow
1:54 PM 26.1 °F 14.0 °F 23.0 °F 88% 29.83 in 0.5 mi North 15.0 mph - 0.06 in Fog , Snow Snow
2:54 PM 24.1 °F 10.1 °F 21.0 °F 88% 29.81 in 0.5 mi North 18.4 mph - 0.05 in Fog , Snow Light Snow
3:54 PM 23.0 °F 9.2 °F 19.0 °F 85% 29.83 in 0.5 mi North 17.3 mph - 0.02 in Fog , Snow Snow
4:01 PM 23.0 °F 8.7 °F 19.4 °F 86% 29.78 in 0.2 mi North 18.4 mph 28.8 mph 0.00 in Fog , Snow Snow
4:05 PM 23.0 °F 8.3 °F 19.4 °F 86% 29.77 in 0.5 mi North 19.6 mph 28.8 mph 0.01 in Fog , Snow Snow
4:54 PM 21.9 °F 7.3 °F 18.0 °F 85% 29.82 in 0.5 mi North 18.4 mph - 0.02 in Fog Light Freezing Fog
5:06 PM 21.2 °F 6.0 °F 17.6 °F 86% 29.77 in 0.5 mi North 19.6 mph - 0.00 in Fog , Snow Snow
5:54 PM 21.9 °F 7.3 °F 18.0 °F 85% 29.81 in 0.5 mi North 18.4 mph 24.2 mph 0.00 in Fog , Snow Snow
6:54 PM 21.0 °F 4.6 °F 17.1 °F 85% 29.81 in 0.5 mi North 23.0 mph 31.1 mph 0.02 in Fog , Snow Snow
7:01 PM 21.2 °F 4.5 °F 17.6 °F 86% 29.77 in 0.5 mi North 24.2 mph 31.1 mph 0.00 in Fog , Snow Snow
7:54 PM 21.9 °F 7.3 °F 18.0 °F 85% 29.82 in 0.5 mi North 18.4 mph - 0.01 in Fog , Snow Snow
8:01 PM 21.2 °F 5.2 °F 17.6 °F 86% 29.78 in 0.5 mi North 21.9 mph 26.5 mph 0.00 in Fog , Snow Snow
8:54 PM 21.9 °F 5.5 °F 17.1 °F 82% 29.83 in 0.5 mi North 24.2 mph 31.1 mph 0.01 in Snow Snow
9:14 PM 21.2 °F 4.2 °F 17.6 °F 86% 29.79 in 0.5 mi North 25.3 mph 33.4 mph 0.00 in Snow Snow
9:16 PM 21.2 °F 3.9 °F 17.6 °F 86% 29.79 in 1.0 mi North 26.5 mph 34.5 mph 0.00 in Snow Light Snow
9:54 PM 21.9 °F 6.5 °F 17.1 °F 82% 29.83 in 1.8 mi NNW 20.7 mph - 0.01 in Snow Light Snow
10:20 PM 21.2 °F 5.2 °F 17.6 °F 86% 29.80 in 1.8 mi NNW 21.9 mph 29.9 mph 0.01 in Snow Light Snow
10:54 PM 19.9 °F 2.8 °F 15.1 °F 81% 29.84 in 1.0 mi NNW 24.2 mph 32.2 mph 0.01 in Snow Light Snow
11:06 PM 19.4 °F 2.8 °F 15.8 °F 86% 29.82 in 1.0 mi NW 21.9 mph 36.8 mph 0.00 in Snow Light Snow
11:52 PM 17.6 °F 0.9 °F 12.2 °F 79% 29.83 in 0.5 mi NW 20.7 mph 31.1 mph 0.01 in   Haze
11:54 PM 17.1 °F -1.7 °F 12.0 °F 81% 29.87 in 0.5 mi NW 26.5 mph 35.7 mph 0.01 in   Haze